Location: ??????
(38.3184°N, 23.6932°E)
Time: 01:58:12
(UTC+00:00)

CSL-04 Debris - Pass Details

Date: 16 October 2021
Orbit: 827 x 847 km, 98.9° (Epoch: 04 December)

Event Time Altitude Azimuth Distance (km) Brightness Sun altitude
Exits shadow 17:26:58 38° 120° (ESE) 1,249 4.6 -20.6°
Maximum altitude 17:28:36 51° 71° (ENE) 1,038 4.3 -20.9°
Drops below altitude 10° 17:33:48 10° 357° (N) 2,442 6.7 -21.9°
Sets 17:36:13 0° 353° (N) 3,382 7.5 -22.4°
